• In Hungary
  • List of Countries
  • For 7 days
  • Water Temperature
  • Satellite Maps
  • Weather Map
  • News
  • Weather Widgets
  • user-avatar
    Login

    Hourly Weather Cambridge

    Today, 24 May, Thursday

    Time Temperature Precipitation Wind Pressure Humidity
    00:00 +10°C° 0 mm 4 mps 765 mmHg 90%
    01:00 +10°C° 0.2 mm 4 mps 765 mmHg 91%
    02:00 +11°C° 0.2 mm 4 mps 765 mmHg 91%
    03:00 +11°C° 0.2 mm 4 mps 765 mmHg 92%
    04:00 +11°C° 0.1 mm 4 mps 764 mmHg 91%
    05:00 +12°C° 0.1 mm 4 mps 764 mmHg 90%
    06:00 +13°C° 0.1 mm 4 mps 764 mmHg 89%
    07:00 +15°C° 0 mm 4 mps 764 mmHg 85%
    08:00 +17°C° 0 mm 4 mps 764 mmHg 81%
    09:00 +19°C° 0 mm 4 mps 764 mmHg 77%
    10:00 +20°C° 0.2 mm 4 mps 764 mmHg 72%
    11:00 +21°C° 0.2 mm 5 mps 764 mmHg 68%
    12:00 +22°C° 0.2 mm 5 mps 763 mmHg 64%
    13:00 +22°C° 0.1 mm 5 mps 763 mmHg 63%
    14:00 +22°C° 0.1 mm 5 mps 763 mmHg 62%
    15:00 +22°C° 0.1 mm 5 mps 763 mmHg 61%
    16:00 +21°C° 0.1 mm 5 mps 762 mmHg 66%
    17:00 +20°C° 0.1 mm 4 mps 762 mmHg 71%
    18:00 +19°C° 0.1 mm 4 mps 762 mmHg 76%
    19:00 +17°C° 0 mm 4 mps 762 mmHg 81%
    20:00 +16°C° 0 mm 3 mps 762 mmHg 87%
    21:00 +13°C° 0 mm 3 mps 762 mmHg 92%
    22:00 +13°C° 0 mm 3 mps 762 mmHg 93%
    23:00 +13°C° 0 mm 3 mps 762 mmHg 94%

    Tomorrow, 25 May, Friday

    Time Temperature Precipitation Wind Pressure Humidity
    00:00 +13°C° 0 mm 3 mps 762 mmHg 94%
    01:00 +13°C° 0.2 mm 4 mps 762 mmHg 95%
    02:00 +13°C° 0.2 mm 4 mps 761 mmHg 95%
    03:00 +13°C° 0.2 mm 4 mps 761 mmHg 96%
    04:00 +13°C° 0.6 mm 4 mps 761 mmHg 96%
    05:00 +13°C° 0.6 mm 4 mps 761 mmHg 96%
    06:00 +13°C° 0.6 mm 3 mps 761 mmHg 96%
    07:00 +14°C° 0.5 mm 3 mps 761 mmHg 95%
    08:00 +16°C° 0.5 mm 3 mps 761 mmHg 94%
    09:00 +17°C° 0.5 mm 2 mps 761 mmHg 93%
    10:00 +17°C° 0.1 mm 2 mps 761 mmHg 91%
    11:00 +18°C° 0.1 mm 2 mps 761 mmHg 88%
    12:00 +19°C° 0.1 mm 2 mps 761 mmHg 86%
    13:00 +20°C° 0.6 mm 2 mps 761 mmHg 84%
    14:00 +20°C° 0.6 mm 3 mps 761 mmHg 82%
    15:00 +21°C° 0.6 mm 3 mps 761 mmHg 80%
    16:00 +20°C° 0.4 mm 3 mps 761 mmHg 82%
    17:00 +20°C° 0.4 mm 3 mps 762 mmHg 83%
    18:00 +20°C° 0.4 mm 3 mps 762 mmHg 85%
    19:00 +18°C° 0 mm 3 mps 762 mmHg 88%
    20:00 +17°C° 0 mm 3 mps 762 mmHg 92%
    21:00 +16°C° 0 mm 3 mps 763 mmHg 95%
    22:00 +14°C° 0 mm 3 mps 763 mmHg 96%
    23:00 +14°C° 0 mm 2 mps 763 mmHg 97%

    Day after tomorrow, 26 May, Saturday

    Time Temperature Precipitation Wind Pressure Humidity
    00:00 +14°C° 0 mm 2 mps 763 mmHg 97%
    01:00 +14°C° 0 mm 2 mps 763 mmHg 97%
    02:00 +12°C° 0 mm 3 mps 763 mmHg 97%
    03:00 +12°C° 0 mm 3 mps 763 mmHg 97%
    04:00 +13°C° 0 mm 3 mps 763 mmHg 96%
    05:00 +14°C° 0 mm 3 mps 763 mmHg 96%
    06:00 +14°C° 0 mm 4 mps 763 mmHg 95%
    07:00 +17°C° 0 mm 4 mps 764 mmHg 91%
    08:00 +17°C° 0 mm 5 mps 764 mmHg 88%
    09:00 +20°C° 0 mm 5 mps 764 mmHg 84%
    10:00 +20°C° 0 mm 6 mps 764 mmHg 81%
    11:00 +21°C° 0 mm 7 mps 764 mmHg 77%
    12:00 +22°C° 0 mm 7 mps 764 mmHg 73%
    13:00 +22°C° 0 mm 7 mps 764 mmHg 72%
    14:00 +22°C° 0 mm 7 mps 764 mmHg 70%
    15:00 +22°C° 0 mm 8 mps 764 mmHg 69%
    16:00 +21°C° 0 mm 7 mps 764 mmHg 71%
    17:00 +20°C° 0 mm 7 mps 764 mmHg 73%
    18:00 +18°C° 0 mm 7 mps 764 mmHg 75%
    19:00 +17°C° 0 mm 6 mps 764 mmHg 76%
    20:00 +16°C° 0 mm 6 mps 764 mmHg 77%
    21:00 +14°C° 0 mm 6 mps 765 mmHg 78%
    22:00 +14°C° 0 mm 6 mps 764 mmHg 80%
    23:00 +15°C° 0 mm 6 mps 764 mmHg 82%

    27 May, Sunday

    Time Temperature Precipitation Wind Pressure Humidity
    00:00 +15°C° 0 mm 6 mps 764 mmHg 83%
    01:00 +15°C° 0 mm 6 mps 764 mmHg 84%
    02:00 +15°C° 0 mm 6 mps 763 mmHg 85%
    03:00 +15°C° 0 mm 5 mps 763 mmHg 86%
    04:00 +15°C° 0.6 mm 6 mps 763 mmHg 86%
    05:00 +16°C° 0.6 mm 6 mps 763 mmHg 87%
    06:00 +16°C° 0.6 mm 6 mps 763 mmHg 87%
    07:00 +17°C° 0.3 mm 6 mps 763 mmHg 85%
    08:00 +18°C° 0.3 mm 7 mps 763 mmHg 82%
    09:00 +20°C° 0.3 mm 7 mps 763 mmHg 80%
    10:00 +21°C° 0.1 mm 7 mps 762 mmHg 79%
    11:00 +21°C° 0.1 mm 6 mps 762 mmHg 79%
    12:00 +21°C° 0.1 mm 6 mps 762 mmHg 78%
    13:00 +21°C° 0.1 mm 6 mps 762 mmHg 77%
    14:00 +21°C° 0.1 mm 6 mps 762 mmHg 77%
    15:00 +21°C° 0.1 mm 6 mps 761 mmHg 77%
    16:00 +21°C° 0.2 mm 6 mps 761 mmHg 78%
    17:00 +20°C° 0.2 mm 6 mps 761 mmHg 79%
    18:00 +19°C° 0.2 mm 6 mps 761 mmHg 81%
    19:00 +19°C° 0.1 mm 5 mps 761 mmHg 82%
    20:00 +17°C° 0.1 mm 5 mps 762 mmHg 83%
    21:00 +16°C° 0.1 mm 5 mps 762 mmHg 84%
    22:00 +17°C° 0.3 mm 4 mps 761 mmHg 85%
    23:00 +17°C° 0.3 mm 4 mps 761 mmHg 87%

    28 May, Monday

    Time Temperature Precipitation Wind Pressure Humidity
    00:00 +15°C° 0.3 mm 4 mps 761 mmHg 89%
    01:00 +16°C° 0.2 mm 3 mps 761 mmHg 91%
    02:00 +16°C° 0.2 mm 3 mps 761 mmHg 92%
    03:00 +16°C° 0.2 mm 3 mps 761 mmHg 93%
    04:00 +15°C° 0.1 mm 4 mps 761 mmHg 93%
    05:00 +17°C° 0.1 mm 4 mps 761 mmHg 92%
    06:00 +18°C° 0.1 mm 4 mps 761 mmHg 91%
    07:00 +19°C° 0 mm 4 mps 761 mmHg 88%
    08:00 +20°C° 0 mm 5 mps 761 mmHg 85%
    09:00 +22°C° 0 mm 5 mps 761 mmHg 82%
    10:00 +23°C° 0.3 mm 5 mps 760 mmHg 79%
    11:00 +25°C° 0.3 mm 5 mps 760 mmHg 76%
    12:00 +26°C° 0.3 mm 6 mps 760 mmHg 73%
    13:00 +25°C° 1.1 mm 5 mps 760 mmHg 75%
    14:00 +25°C° 1.1 mm 5 mps 760 mmHg 77%
    15:00 +23°C° 1.1 mm 5 mps 760 mmHg 78%
    16:00 +22°C° 0.2 mm 5 mps 760 mmHg 81%
    17:00 +21°C° 0.2 mm 4 mps 760 mmHg 84%
    18:00 +20°C° 0.2 mm 4 mps 760 mmHg 87%
    19:00 +19°C° 0.2 mm 4 mps 760 mmHg 89%
    20:00 +18°C° 0.2 mm 4 mps 760 mmHg 92%
    21:00 +17°C° 0.2 mm 3 mps 760 mmHg 95%
    22:00 +17°C° 0.7 mm 3 mps 760 mmHg 95%
    23:00 +17°C° 0.7 mm 3 mps 760 mmHg 95%

    29 May, Tuesday

    Time Temperature Precipitation Wind Pressure Humidity
    00:00 +16°C° 0.7 mm 3 mps 760 mmHg 96%
    01:00 +16°C° 0.4 mm 3 mps 760 mmHg 96%
    02:00 +16°C° 0.4 mm 2 mps 759 mmHg 96%
    03:00 +16°C° 0.4 mm 2 mps 759 mmHg 96%
    04:00 +17°C° 0 mm 2 mps 759 mmHg 95%
    05:00 +18°C° 0 mm 2 mps 759 mmHg 94%
    06:00 +19°C° 0 mm 2 mps 760 mmHg 94%
    07:00 +20°C° 0 mm 2 mps 760 mmHg 89%
    08:00 +23°C° 0 mm 2 mps 760 mmHg 84%
    09:00 +24°C° 0 mm 3 mps 760 mmHg 80%
    10:00 +25°C° 2 mm 3 mps 760 mmHg 79%
    11:00 +26°C° 2 mm 4 mps 760 mmHg 78%
    12:00 +26°C° 2 mm 4 mps 759 mmHg 77%
    13:00 +26°C° 1.9 mm 4 mps 759 mmHg 76%
    14:00 +26°C° 1.9 mm 4 mps 759 mmHg 76%
    15:00 +26°C° 1.9 mm 4 mps 759 mmHg 76%
    16:00 +26°C° 0.6 mm 4 mps 759 mmHg 78%
    17:00 +25°C° 0.6 mm 3 mps 759 mmHg 81%
    18:00 +25°C° 0.6 mm 3 mps 759 mmHg 83%
    19:00 +24°C° 0 mm 3 mps 759 mmHg 86%
    20:00 +21°C° 0 mm 3 mps 759 mmHg 90%
    21:00 +19°C° 0 mm 2 mps 759 mmHg 93%
    22:00 +19°C° 0 mm 2 mps 759 mmHg 94%
    23:00 +18°C° 0 mm 2 mps 759 mmHg 94%
    Show more